Weather History for Pueblo, CO

Change the Weather History Date:

Sunday, May 6, 2012

  Actual Average Record
Temperature  
Mean Temperature 61 °F 57 °F  
Max Temperature 70 °F 74 °F 91 °F (2004)
Min Temperature 51 °F 41 °F 29 °F (1917)
Degree Days  
Heating Degree Days 4 8  
Month to date heating degree days 9 53  
Since 1 July heating degree days 4929 5493  
Cooling Degree Days 0 0  
Month to date cooling degree days 6 0  
Year to date cooling degree days 15 2  
Growing Degree Days 11 (Base 50)    
Moisture  
Dew Point 33 °F    
Average Humidity 35    
Maximum Humidity 47    
Minimum Humidity 23    
Precipitation  
Precipitation 0.03 in 0.05 in 1.05 in (1973)
Month to date precipitation 0.03 0.31  
Year to date precipitation 1.57 3.29  
Snow  
Snow 0.00 in 0.10 in 6.00 in (1917)
Month to date snowfall 0.0 0.3  
Since 1 July snowfall 32.1 31.6  
Snow Depth 0.00 in    
Sea Level Pressure  
Sea Level Pressure 29.99 in    
Wind  
Wind Speed 13 mph (ENE)    
Max Wind Speed 46 mph    
Max Gust Speed 58 mph    
Visibility 10 miles    
Events Rain    
T = Trace of Precipitation, MM = Missing Value Source: NWS Daily Summary

Daily Weather History Graph

Daily Weather History Graph

Search for Another Location

Airport:

Trip Planner

Search our weather history database for the weather conditions in past years. The results will help you decide how hot, cold, wet, or windy it might be!

Date:

Astronomy

May. 06, 2012 Rise Set
Actual Time 5:55 AM MDT 7:54 PM MDT
Civil Twilight 5:26 AM MDT 8:23 PM MDT
Nautical Twilight 4:50 AM MDT 8:58 PM MDT
Astronomical Twilight 4:13 AM MDT 9:37 PM MDT
Moon 9:01 PM MDT (5/6) 6:08 AM MDT (5/6)
Length of Visible Light 14h 57m
Length of Day
13h 59m
Waxing Gibbous, 99% of the Moon is Illuminated
May 6
Waxing Gibbous
May 12
Last Quarter
May 20
New
May 28
First Quarter
Jun 4
Full

Hourly Weather History & Observations

Time (MDT) Temp. Dew Point Humidity Pressure Visibility Wind Dir Wind Speed Gust Speed Precip Events Conditions
12:53 AM 61.0 °F 32.0 °F 34% 29.73 in 10.0 mi North 40.3 mph 52.9 mph N/A   Clear
1:53 AM 59.0 °F 35.6 °F 42% 29.96 in 10.0 mi North 36.8 mph 50.6 mph N/A   Clear
2:53 AM 59.0 °F 30.9 °F 35% 29.81 in 10.0 mi North 33.4 mph 47.2 mph N/A   Scattered Clouds
3:53 AM 57.0 °F 24.1 °F 28% 29.85 in 10.0 mi North 28.8 mph 42.6 mph N/A   Mostly Cloudy
4:53 AM 55.9 °F 19.0 °F 24% 29.88 in 10.0 mi North 25.3 mph 32.2 mph N/A   Mostly Cloudy
5:53 AM 55.0 °F 25.0 °F 31% 29.95 in 10.0 mi Variable 6.9 mph 17.3 mph N/A   Mostly Cloudy
6:53 AM 54.0 °F 28.0 °F 37% 29.99 in 10.0 mi NNE 8.1 mph - N/A   Mostly Cloudy
7:53 AM 55.9 °F 36.0 °F 47% 30.04 in 10.0 mi NNE 15.0 mph - N/A   Overcast
8:53 AM 55.9 °F 35.1 °F 45% 30.08 in 10.0 mi NNE 13.8 mph - N/A   Overcast
9:53 AM 59.0 °F 36.0 °F 42% 30.06 in 10.0 mi ENE 12.7 mph 16.1 mph N/A   Mostly Cloudy
10:53 AM 59.0 °F 36.0 °F 42% 30.08 in 10.0 mi ESE 9.2 mph - N/A   Overcast
11:53 AM 62.1 °F 33.1 °F 34% 30.07 in 10.0 mi Variable 6.9 mph - N/A   Overcast
12:53 PM 63.0 °F 30.9 °F 30% 30.05 in 10.0 mi Calm Calm - N/A   Mostly Cloudy
1:53 PM 66.9 °F 28.9 °F 24% 30.00 in 10.0 mi Variable 6.9 mph 16.1 mph N/A   Clear
2:53 PM 68.0 °F 30.0 °F 24% 29.96 in 10.0 mi Variable 3.5 mph 18.4 mph N/A   Scattered Clouds
3:53 PM 69.1 °F 30.9 °F 24% 29.95 in 10.0 mi ESE 4.6 mph 20.7 mph N/A   Mostly Cloudy
4:53 PM 66.9 °F 32.0 °F 27% 29.95 in 10.0 mi ESE 4.6 mph - N/A   Overcast
5:53 PM 66.9 °F 33.1 °F 28% 29.95 in 10.0 mi ESE 10.4 mph - N/A   Overcast
6:53 PM 66.0 °F 35.1 °F 32% 29.96 in 10.0 mi ESE 13.8 mph - N/A   Mostly Cloudy
7:53 PM 64.9 °F 34.0 °F 32% 29.98 in 10.0 mi ESE 10.4 mph - N/A   Overcast
8:53 PM 63.0 °F 34.0 °F 34% 30.01 in 10.0 mi East 16.1 mph - 0.00 in   Overcast
9:53 PM 60.1 °F 33.1 °F 36% 30.05 in 10.0 mi ENE 16.1 mph - 0.00 in   Overcast
10:53 PM 52.0 °F 42.1 °F 69% 30.12 in 10.0 mi NE 13.8 mph - 0.02 in Rain Light Rain
11:53 PM 52.0 °F 44.1 °F 74% 30.12 in 10.0 mi ENE 6.9 mph - 0.01 in   Overcast